CW3827 Weather Reports


Display with metric or nautical units.
time (UTC)temp
F
wind
direction
speed
MPH
gust
MPH
rain 1hr
in
rain 24hr
in
rain mn
in
humidity
%
barometer
mb
20260505001525 70 72 19.0 27.0 0.00 0.00 0.00 22 1013.9
20260505000032 71 51 19.0 31.0 0.00 0.00 0.00 21 1013.9
20260504234528 70 338 17.0 30.0 0.00 0.00 0.00 23 1014.2
20260504233020 71 23 19.0 28.0 0.00 0.00 0.00 23 1014.3
20260504231525 71 97 18.0 30.0 0.00 0.00 0.00 22 1014.5
20260504230002 71 57 21.0 29.0 0.00 0.00 0.00 23 1014.5
20260504224511 71 24 21.0 32.0 0.00 0.00 0.00 23 1014.9
20260504223006 71 63 18.0 35.0 0.00 0.00 0.00 23 1014.9
20260504221507 71 61 21.0 34.0 0.00 0.00 0.00 22 1015.3
20260504220004 71 125 24.0 35.0 0.00 0.00 0.00 22 1015.4
20260504214506 71 105 21.0 32.0 0.00 0.00 0.00 21 1015.4
20260504213003 71 47 20.0 31.0 0.00 0.00 0.00 22 1015.7
20260504211512 70 72 20.0 29.0 0.00 0.00 0.00 22 1016.0
20260504210012 71 50 24.0 34.0 0.00 0.00 0.00 21 1016.0
20260504204508 71 163 22.0 34.0 0.00 0.00 0.00 22 1016.1
20260504203002 71 30 18.0 28.0 0.00 0.00 0.00 20 1016.3
20260504201504 70 108 16.0 26.0 0.00 0.00 0.00 21 1016.6
20260504200018 70 26 20.0 29.0 0.00 0.00 0.00 22 1016.7
20260504194512 71 72 19.0 30.0 0.00 0.00 0.00 25 1017.0
20260504193011 69 65 20.0 28.0 0.00 0.00 0.00 24 1017.1
20260504191508 69 102 21.0 30.0 0.00 0.00 0.00 24 1017.0
20260504190008 69 72 18.0 32.0 0.00 0.00 0.00 23 1017.3
20260504184504 69 86 19.0 29.0 0.00 0.00 0.00 25 1017.4
20260504183022 68 37 15.0 28.0 0.00 0.00 0.00 28 1017.6
20260504181518 68 63 19.0 26.0 0.00 0.00 0.00 28 1017.8
20260504180017 68 81 16.0 25.0 0.00 0.00 0.00 29 1017.8
20260504174512 67 68 20.0 29.0 0.00 0.00 0.00 30 1018.1
20260504173008 67 58 18.0 25.0 0.00 0.00 0.00 31 1017.9
20260504171506 67 81 17.0 27.0 0.00 0.00 0.00 31 1017.9
20260504081520 55 152 8.0 11.0 0.00 0.00 0.00 60 1017.6
20260504050006 58 47 9.0 13.0 0.00 0.00 0.00 55 1019.3
20260504044506 57 70 5.0 9.0 0.00 0.00 0.00 56 1019.4
20260504043005 57 74 6.0 13.0 0.00 0.00 0.00 57 1019.4
20260504041512 54 146 0.0 0.0 0.00 0.00 0.00 61 1019.3
20260504040012 54 131 0.0 0.0 0.00 0.00 0.00 60 1019.2
20260504034507 55 119 0.0 0.0 0.00 0.00 0.00 61 1019.3
20260504033010 55 148 0.0 0.0 0.00 0.00 0.00 60 1019.3
20260504031504 55 136 0.0 0.0 0.00 0.00 0.00 57 1019.3
20260504030003 56 131 0.0 0.0 0.00 0.00 0.00 59 1019.3
20260504024507 58 98 0.0 5.0 0.00 0.00 0.00 57 1019.3
20260504023010 59 154 4.0 7.0 0.00 0.00 0.00 52 1019.4
20260504021511 60 89 8.0 13.0 0.00 0.00 0.00 51 1019.5
20260504020007 61 123 8.0 14.0 0.00 0.00 0.00 49 1019.2
20260504014506 61 295 11.0 20.0 0.00 0.00 0.00 48 1018.8
20260504013005 61 108 13.0 24.0 0.00 0.00 0.00 51 1018.4
20260504011519 63 37 16.0 27.0 0.00 0.00 0.00 46 1018.6
20260504010012 63 340 17.0 23.0 0.00 0.00 0.00 45 1018.7
20260504004514 64 98 15.0 24.0 0.00 0.00 0.00 43 1018.8
20260504003010 64 66 12.0 23.0 0.00 0.00 0.00 43 1018.8